Weather in Vizirny

Russia / Irkutsk Oblast     58°53′36″N   111°15′15″E
temp.,
°C
wind,
m/s
gust,
m/s
humid.,
%
clouds,
%
prec.,
mm/h
press.,
hPa
HPBL,
m
5 august, thu
thu523:00+13se119957 0.0 100333
02:00+11ene119991 0.0 100313
05:00+12nne129889 0.0 100369
08:00+15n239093 0.0 1003362
11:00+20ne2259100 0.3 10011082
14:00+19ese237381 2.7 1001658
17:00+21sse335360 0.6 10021097
20:00+15s1179100 0.6 100213
6 august, fri
fri623:00+12ssw119112 0.0 100210
02:00+11nne009316 0.0 100210
05:00+11n1191100 0.0 100211
08:00+12nw1296100 0.6 100260
11:00+16nne2691100 0.1 1002573
14:00+19ne2472100 0.1 1002957
17:00+17ne1789100 1.1 1002407
20:00+14ne2692100 1.2 1003208
7 august, sat
sat723:00+13nne1190100 0.1 100422
02:00+13n1188100 0.1 100318
05:00+12n2291100 0.0 100421
08:00+14nnw1286100 0.0 100487
11:00+21ene3546100 0.0 1004928
14:00+16nne1382100 0.3 100580
17:00+16nne2283100 0.0 100564
20:00+15nne2290100 0.1 100645
8 august, sun
sun823:00+15n239073 0.2 100672
02:00+13nnw2291100 0.2 100619
05:00+11nnw2290100 0.0 100726
08:00+14nw2384100 0.0 1007116
11:00+19nnw4760100 0.1 10071219
14:00+14nnw4993100 1.0 1008545
17:00+14nnw41197100 8.1 1010653
20:00+13wnw1297100 10.6 101147
9 august, mon
mon923:00+13wsw1197100 0.3 101221
02:00+12ssw1197100 0.3 101322
05:00+12s1197100 0.1 101328
08:00+13ssw1295100 0.1 1013111
11:00+16sse128286 0.2 1013290
14:00+18se226843 1.2 1013531
17:00+20ese225294 0.0 1013816
20:00+16ese227472 0.0 101323